Tracking 28356 objects as of 8-Dec-2023
HD Live streaming from Space Station
objects crossing your sky now

STARLINK-3354

Track STARLINK-3354 now!
10-day predictions
STARLINK-3354 is classified as:


NORAD ID: 51146
Int'l Code: 2022-005AU
Perigee: 545.9 km
Apogee: 547.8 km
Inclination: 53.2 °
Period: 95.4 minutes
Semi major axis: 6917 km
RCS: Unknown
Launch date: January 19, 2022
Source: United States (US)
Launch site: AIR FORCE EASTERN TEST RANGE (AFETR)
Your satellite tracking list
Your tracking list is empty




NASA's NSSDC Master Catalog

Two Line Element Set (TLE):
1 51146U 22005AU  23341.54843405  .00001665  00000-0  12265-3 0  9999
2 51146  53.2175  34.3576 0001363  96.2130 263.9017 15.08847820104460
Source of the keplerian elements: AFSPC